TimeMDT,TemperatureF,Dew PointF,Humidity,Sea Level PressureIn,VisibilityMPH,Wind Direction,Wind SpeedMPH,Gust SpeedMPH,PrecipitationIn,Events,Conditions,WindDirDegrees,DateUTC
12:53 AM,50.0,30.0,46,29.86,10.0,East,3.5,-,N/A,,Clear,100,2013-06-06 06:53:00
1:53 AM,46.0,30.0,54,29.87,10.0,Calm,Calm,-,N/A,,Clear,0,2013-06-06 07:53:00
2:53 AM,46.0,25.0,44,29.87,10.0,ENE,3.5,-,N/A,,Clear,70,2013-06-06 08:53:00
3:53 AM,43.0,28.0,56,29.88,10.0,ENE,3.5,-,N/A,,Clear,60,2013-06-06 09:53:00
4:53 AM,43.0,28.0,56,29.89,10.0,East,4.6,-,N/A,,Clear,100,2013-06-06 10:53:00
5:53 AM,42.1,28.0,58,29.89,10.0,ENE,8.1,-,N/A,,Clear,60,2013-06-06 11:53:00
6:53 AM,48.0,28.9,48,29.90,10.0,ENE,4.6,-,N/A,,Clear,70,2013-06-06 12:53:00
7:53 AM,55.9,30.9,39,29.88,10.0,Calm,Calm,-,N/A,,Clear,0,2013-06-06 13:53:00
8:53 AM,66.0,33.1,29,29.88,10.0,Calm,Calm,-,N/A,,Clear,0,2013-06-06 14:53:00
9:53 AM,72.0,26.1,18,29.88,10.0,Calm,Calm,-,N/A,,Clear,0,2013-06-06 15:53:00
10:53 AM,78.1,27.0,15,29.88,10.0,Variable,3.5,-,N/A,,Clear,0,2013-06-06 16:53:00
11:53 AM,81.0,26.1,13,29.87,10.0,Variable,5.8,-,N/A,,Clear,0,2013-06-06 17:53:00
12:53 PM,84.0,25.0,12,29.86,10.0,Variable,5.8,-,N/A,,Clear,0,2013-06-06 18:53:00
1:53 PM,87.1,21.9,9,29.85,10.0,NW,11.5,18.4,N/A,,Clear,310,2013-06-06 19:53:00
2:53 PM,87.1,21.9,9,29.82,10.0,NW,9.2,17.3,N/A,,Clear,310,2013-06-06 20:53:00
3:53 PM,89.1,21.9,9,29.82,10.0,WSW,10.4,17.3,N/A,,Clear,250,2013-06-06 21:53:00
4:53 PM,87.1,21.0,9,29.80,10.0,Variable,4.6,24.2,N/A,,Clear,0,2013-06-06 22:53:00
5:53 PM,87.1,21.0,9,29.79,10.0,NNW,12.7,21.9,N/A,,Clear,330,2013-06-06 23:53:00
6:53 PM,84.9,18.0,8,29.77,10.0,North,16.1,23.0,N/A,,Clear,360,2013-06-07 00:53:00
7:53 PM,82.0,16.0,8,29.78,10.0,NNW,11.5,17.3,N/A,,Clear,340,2013-06-07 01:53:00
8:53 PM,75.9,17.1,11,29.78,10.0,NNW,9.2,-,N/A,,Clear,340,2013-06-07 02:53:00
9:53 PM,63.0,25.0,24,29.83,10.0,East,6.9,-,N/A,,Clear,90,2013-06-07 03:53:00
10:53 PM,63.0,24.1,23,29.84,10.0,North,5.8,-,N/A,,Clear,10,2013-06-07 04:53:00
11:53 PM,55.0,28.9,37,29.86,10.0,East,8.1,-,N/A,,Clear,80,2013-06-07 05:53:00